Regional Weather Roundup
Issued by NWS

Home | Current Version | Previous Version | Graphics & Text | Print | Product List | Glossary Off
Versions: 1 2 3 4 5 6 7 8 9 10 11 12 13 14 15 16 17 18 19 20 21 22 23 24 25 26 27 28 29 30 31 32 33 34 35 36 37 38 39 40 41 42 43 44 45 46 47 48 49 50

000
ASUS43 KDMX 212306
RWRIA

WEATHER ROUNDUP FOR IOWA
NATIONAL WEATHER SERVICE DES MOINES IA
600 PM CDT SAT OCT 21 2017

NOTE: "FAIR" INDICATES FEW OR NO CLOUDS BELOW 12,000 FEET WITH NO
SIGNIFICANT WEATHER AND/OR OBSTRUCTIONS TO VISIBILITY.

* - THESE STATIONS ARE NOT NWS STATIONS...THUS NOT UNDER NWS
QUALITY CONTROL.  THEY ALSO DO NOT REPORT WEATHER SUCH
AS PRECIPITATION OR FOG.

IAZ001>003-012>014-020>022-031>034-043>046-220000-
   NORTHWEST IOWA

CITY           SKY/WX    TMP DP  RH WIND       PRES   REMARKS
CHEROKEE *     CLOUDY    55  45  68 NW12      29.80S
DENISON *      CLOUDY    57  45  62 NW12G20   29.83R
LE MARS *      CLOUDY    55  41  58 NW9       29.83R
ORANGE CITY *  CLOUDY    55  45  67 NW12      29.82R
SHELDON *      CLOUDY    54  43  66 W10       29.79R
SIOUX CITY     CLOUDY    55  43  63 NW12      29.85R
SPENCER        LGT RAIN  56  45  66 W15       29.78R
STORM LAKE *   CLOUDY    55  45  67 NW17G28   29.78S
$$

IAZ055>058-069>071-079>083-090>094-220000-
   SOUTHWEST IOWA

CITY           SKY/WX    TMP DP  RH WIND       PRES   REMARKS
ATLANTIC *     CLOUDY    57  50  77 NW13      29.80R
AUDUBON *      CLOUDY    57  52  82 NW10      29.80R
CLARINDA *     CLOUDY    61  55  82 NW18G24   29.82R
COUNCIL BLFS * PTCLDY    59  45  58 N16G24    29.83R
CRESTON *      CLOUDY    68  64  88 S16G30    29.77F
HARLAN  *      CLOUDY    57  48  72 NW18G24   29.85R
LAMONI         CLOUDY    72  63  73 S10       29.79R
RED OAK *      CLOUDY    59  50  72 NW9G16    29.82R
SHENANDOAH *   CLOUDY    61  52  72 CALM      29.83R
$$

IAZ047>049-059>061-072>074-084-220000-
   CENTRAL IOWA

CITY           SKY/WX    TMP DP  RH WIND       PRES   REMARKS
AMES           CLOUDY    72  63  73 S16       29.74S
ANKENY *       CLOUDY    73  63  68 S14G22    29.77S
BOONE *        CLOUDY    72  63  73 S14       29.74S
CHARITON *     CLOUDY    72  63  73 S14       29.80R
DES MOINES     TSTM      73  62  68 S13G22    29.76R
GRINNELL*      CLOUDY    72  61  68 S13       29.81R
KNOXVILLE *    CLOUDY    72  61  68 S13       29.79R
MARSHALLTOWN   CLOUDY    72  62  71 S14G24    29.78R
NEWTON *       CLOUDY    72  63  73 S13       29.80R
PELLA *        PTCLDY    73  61  65 S12G20    29.81R
PERRY *        LGT RAIN  72  64  76 S14G22    29.75R
$$

IAZ004>006-015-016-023>025-035-036-220000-
   NORTH CENTRAL IOWA

CITY           SKY/WX    TMP DP  RH WIND       PRES   REMARKS
ALGONA *       CLOUDY    59  54  82 NW9G20    29.77R
CLARION *      CLOUDY    70  64  83 S18       29.72F
ESTHERVILLE    CLOUDY    55  47  74 NW10G21   29.75R
FORT DODGE *   TSTM      56  55  97 NW13G25   29.76R FOG
MASON CITY     CLOUDY    68  60  75 S18G29    29.75R
FOREST CITY *  CLOUDY    68  61  77 S17       29.72S
WEBSTER CITY * CLOUDY    70  61  73 S10G17    29.71S
IOWA FALLS *   CLOUDY    71  62  72 SE13      29.77S
$$

IAZ007>011-017>019-026>030-037>042-050>054-066-220000-
   NORTHEAST IOWA

CITY           SKY/WX    TMP DP  RH WIND       PRES   REMARKS
CEDAR RAPIDS   CLOUDY    75  61  61 S10       29.82F
CHARLES CITY * CLOUDY    70  61  73 S12G20    29.78S
CLINTON *      CLOUDY    75  61  61 S12       29.90R
DECORAH *      CLOUDY    70  61  73 S7G18     29.80S
DUBUQUE        CLOUDY    72  60  66 S12       29.86F
MONTICELLO *   CLOUDY    75  61  60 S13       29.83F
OELWEIN *      CLOUDY    70  61  73 S9        29.82R
WATERLOO       CLOUDY    71  60  68 S13       29.79R
$$

IAZ064-065-067-068-078-220000-
   EAST CENTRAL IOWA

CITY           SKY/WX    TMP DP  RH WIND       PRES   REMARKS
DAVENPORT      MOCLDY    76  60  57 S13       29.90S
IOWA CITY      MOCLDY    77  61  57 S12       29.84F
MUSCATINE *    CLOUDY   N/A N/A N/A SE10      29.86S
QUAD CITIES    CLOUDY    77  59  53 S16G23    29.88S
$$

IAZ062-063-075>077-085>089-095>099-220000-
   SOUTHEAST IOWA

CITY           SKY/WX    TMP DP  RH WIND       PRES   REMARKS
BURLINGTON     CLOUDY    75  63  66 S13G23    29.88S
FAIRFIELD *    CLOUDY    75  59  57 S14G21    29.84S
FORT MADISON * MOCLDY    75  63  64 S9        29.89S
KEOKUK *       CLOUDY    77  63  61 S9G17     29.88S
OSKALOOSA *      N/A     71  60  69 S9        29.82S
OTTUMWA        PTCLDY    74  61  63 S13       29.82S
WASHINGTON *   MOCLDY    75  61  60 S12       29.85F
$$

ABBREVIATIONS USED IN REMARKS
   TC - TEMPERATURES IN CELSIUS
  WCI - WIND CHILL INDEX
   HX - HEAT INDEX
  VSB - VISIBILITY
$$




USA.gov is the U.S. government's official web portal to all federal, state and local government web resources and services.